This is the latest recevied weather packets stored in our database for station/object K5NWZ. If no packets are shown the sender has not sent any weather packets the latest 10 day(s).
| Time | Temp. | Humidity | Pressure | Rain* | Wind** | Luminosity | Snow |
|---|---|---|---|---|---|---|---|
| 1787503810 | 30° C | 41% | 1029.5 hPa | 0 mm | - | 663 W/m² | - |
| 1787503505 | 29.44° C | 42% | 1029.5 hPa | 0 mm | - | 659 W/m² | - |
| 1787503202 | 29.44° C | 42% | 1029.6 hPa | 0 mm | - | 657 W/m² | - |
| 1787502897 | 28.89° C | 44% | 1029.6 hPa | 0 mm | - | 630 W/m² | - |
| 1787502591 | 28.89° C | 42% | 1029.6 hPa | 0 mm | - | 620 W/m² | - |
| 1787502286 | 28.89° C | 41% | 1029.8 hPa | 0 mm | - | 599 W/m² | - |
| 1787501982 | 27.78° C | 42% | 1029.8 hPa | 0 mm | - | 599 W/m² | - |
| 1787501678 | 27.22° C | 43% | 1029.7 hPa | 0 mm | - | 579 W/m² | - |
| 1787501373 | 27.22° C | 49% | 1029.7 hPa | 0 mm | - | 558 W/m² | - |
| 1787501069 | 26.11° C | 54% | 1029.8 hPa | 0 mm | - | 548 W/m² | - |
| 1787500765 | 26.67° C | 55% | 1029.7 hPa | 0 mm | - | 471 W/m² | - |
| 1787500461 | 26.11° C | 55% | 1029.8 hPa | 0 mm | - | 462 W/m² | - |
| 1787500161 | 25.56° C | 58% | 1029.8 hPa | 0 mm | - | 478 W/m² | - |
| 1787499855 | 25.56° C | 58% | 1030.1 hPa | 0 mm | - | 437 W/m² | - |
| 1787499550 | 25° C | 59% | 1029.9 hPa | 0 mm | - | 410 W/m² | - |
| 1787499245 | 25.56° C | 61% | 1029.9 hPa | 0 mm | - | 369 W/m² | - |
| 1787498942 | 25° C | 60% | 1030.2 hPa | 0 mm | - | 241 W/m² | - |
| 1787498639 | 24.44° C | 61% | 1029.9 hPa | 0 mm | - | 375 W/m² | - |
| 1787498334 | 23.89° C | 63% | 1030.3 hPa | 0 mm | - | 263 W/m² | - |
| 1787498024 | 23.89° C | 63% | 1030.3 hPa | 0 mm | - | 408 W/m² | - |
| 1787497721 | 24.44° C | 64% | 1030.2 hPa | 0 mm | - | 130 W/m² | - |
| 1787497416 | 23.89° C | 66% | 1030.1 hPa | 0 mm | - | 387 W/m² | - |
| 1787497114 | 23.33° C | 69% | 1030.1 hPa | 0 mm | - | 372 W/m² | - |
| 1787496809 | 23.33° C | 67% | 1030.1 hPa | 0 mm | - | 346 W/m² | - |
| 1787496505 | 22.22° C | 72% | 1029.9 hPa | 0 mm | - | 314 W/m² | - |
* Rain latest hour (hover to see other rain measurements)
** Current wind speed in m/s (hover to see current wind gust speed)